Flag for Botswana Weather past 2 weeks in Francistown, Botswana

Now
95 °F

Partly sunny.


Feels Like: 91 °F
Forecast: 68 / 96 °F
Wind: 2 mph from North

Location: Francistown Airport

Current Time: Oct 24, 2014 at 4:59:25 PM

Latest Report: Oct 24, 2014 at 4:00 PM


Visibility: N/A

Pressure: 29.89 "Hg

Humidity: 15%

Dew point: 41 °F

Location of FrancistownLocation

Historic Weather in Francistown — Graph

°F

Francistown temperature yesterday

Maximum temperature yesterday: 93 °F (at 12:00 PM)
Minimum temperature yesterday: 61 °F (at 6:00 AM)
Average temperature yesterday: 80 °F

Past Weeks' High & Low Weather Summary

 TemperatureHumidityPressure
High99 °F (Oct 9, 4:00 PM)88% (Oct 11, 4:00 AM)30.24 "Hg (Oct 11, 4:00 AM)
Low55 °F (Oct 19, 3:00 AM)8% (Oct 9, 4:00 PM)29.71 "Hg (Oct 16, 2:00 PM)
Average77 °F39%30.05 "Hg
* Reported Oct 9 4:00 PM — Oct 24 4:00 PM, Francistown, Weather by CustomWeather, © 2014

Note: Actual official high and low records may vary slightly from our data, if they occured in-between our weather recording intervals... More about our weather records

Advertising

Francistown weather history for previous 24 hours

 ConditionsComfort  
Time TempWeatherWind HumidityBarometerVisibility
4:00 PM
Oct 24
95 °FPartly sunny.2 mph15%29.89 "HgN/A
3:00 PM95 °FPartly sunny.7 mph15%29.89 "HgN/A
1:00 PM95 °FPassing clouds.5 mph16%29.95 "HgN/A
12:00 PM93 °FSunny.8 mph20%29.98 "Hg10 mi
11:00 AM91 °FSunny.6 mph23%30.01 "Hg10 mi
10:00 AM88 °FSunny.6 mph27%30.04 "Hg10 mi
8:00 AM75 °FSunny.10 mph47%30.07 "Hg10 mi
5:00 AM72 °FSunny.10 mph50%30.01 "Hg10 mi
4:00 AM72 °FClear.7 mph50%30.01 "Hg10 mi
3:00 AM73 °FPassing clouds.10 mph44%29.98 "HgN/A
1:00 AM75 °FPassing clouds.14 mph44%30.04 "HgN/A
11:00 PM
Oct 23
77 °FPassing clouds.15 mph39%30.04 "HgN/A
9:00 PM79 °FPassing clouds.9 mph34%30.01 "HgN/A
8:00 PM82 °FPassing clouds.9 mph30%29.98 "HgN/A
7:00 PM84 °FPassing clouds.9 mph29%29.95 "HgN/A
6:00 PM88 °FPassing clouds.8 mph25%29.95 "HgN/A
5:00 PM91 °FScattered clouds.13 mph23%29.92 "HgN/A
4:00 PM93 °FScattered clouds.6 mph20%29.92 "HgN/A
Weather by CustomWeather, © 2014

See weather overviewHow to use our weather pages